Regional Weather Roundup
Issued by NWS Newport/Morehead, NC

Current Version | Previous Version | Text Only | Print | Product List | Glossary On
Versions: 1 2 3 4 5 6 7 8 9 10 11 12 13 14 15 16 17 18 19 20 21 22 23 24 25 26 27 28 29 30 31 32 33 34 35 36 37 38 39 40 41 42 43 44 45 46 47 48 49 50
655
ASUS42 KMHX 290713
RWRMHX
WEATHER ROUNDUP FOR EASTERN NORTH CAROLINA
NATIONAL WEATHER SERVICE NEWPORT/MOREHEAD CITY NC
300 AM EDT THU JUN 29 2017

NOTE: "FAIR" INDICATES FEW OR NO CLOUDS BELOW 12,000 FEET
WITH NO SIGNIFICANT WEATHER AND/OR OBSTRUCTIONS TO VISIBILITY

NCZ015>017-031-032-045>047-102-103-290800-
NORTH COAST

CITY           SKY/WX    TMP DP  RH WIND       PRES   REMARKS
EDENTON        CLEAR     66  63  89 CALM      30.20S
ELIZABETH CITY PTCLDY    64  62  93 S5        30.19F
KITTY HAWK     SUNNY     68  63  83 CALM      30.19S
MANTEO         PTCLDY    63  61  95 CALM      30.20S

$$

NCZ045>047-081-094-103-104-290800-
CENTRAL COAST

CITY           SKY/WX    TMP DP  RH WIND       PRES   REMARKS
FRISCO         NOT AVBL

$$

NCZ095-097-098-100-101-290800-
SOUTHERN COAST

CITY           SKY/WX    TMP DP  RH WIND       PRES   REMARKS
BEAUFORT       PTCLDY    70  66  87 NE5       30.18F
CEDAR ISLAND   NOT AVBL
JACKSONVILLE   PTCLDY    63  62  97 CALM      30.18S
PINEY ISLAND   CLOUDY   N/A N/A N/A CALM      30.18F
WILMINGTON     CLEAR     63  61  93 CALM      30.18S


$$

NCZ011>013-027>030-043-044-078>080-089-090>093-098-290800-
COASTAL PLAIN

CITY           SKY/WX    TMP DP  RH WIND       PRES   REMARKS
AHOSKIE          N/A     61  60  97 CALM      30.19F
CLINTON        PTCLDY    62  61  97 CALM      30.19S
ELIZABETHTOWN  NOT AVBL
GOLDSBORO      CLEAR     64  63  99 CALM      30.17F
GREENVILLE     PTCLDY    63  61  94 CALM      30.20S
HAVELOCK       PTCLDY    63  57  81 CALM      30.19F
KENANSVILLE    PTCLDY    59  57  94 CALM      30.19F
KINSTON        PTCLDY    61  59  95 CALM      30.19F
NEW BERN       PTCLDY    62  61  96 CALM      30.20F
RICHLANDS      CLEAR     60  58  92 CALM      30.20S
ROCKY MOUNT    PTCLDY    61  61 100 CALM      30.19S
WASHINGTON       N/A    N/A N/A N/A CALM      30.19F
WHITEVILLE     CLEAR     62  59  91 CALM      30.18S

$$

AMZ130-135-150-152-154-156-158-170-250-252-270-ANZ085-086-088-633-658-670-290800-
MARINE OBSERVATIONS

STATION/POSITION TIME  TEMP    WIND        PRES    WAVE   SWELL
                       AIR SEA DIR/SP/G            HT/PER HT/PER
                 (UTC) (F)     (DEG/KT/KT) (MB)    (FT/S) (FT/S)
CHESAPEAKE LIGHT NOT AVBL
64 E VA BEACH    0650   72 73  160/  6/  8 1023.0    2/10   2/10
DUCK             0648   72 73  150/  8/  8 1022.0
2 E DUCK         NOT AVBL
OREGON INLET     0648          120/  2/  3   N/A
13E OREGON INLT  0648      76                N/A     2/ 6   2/ 6
HATTERAS CG      0648   73 78   80/  4/  5 1022.2
DIAMOND BUOY     0650   79 83  120/  2/  4 1022.2    2/ 7   2/ 7
CAPE LOOKOUT     0600   77      10/  5/  5 1021.9
BEAUFORT LAB     0648   71 78   30/  5/  7 1021.2
30 SE NEW RVR IN 0608   78 80   50/  6/  8 1021.8
30 SE NEW RVR IN 0643      80                N/A     2/ 8
27 SE WRIGHTSVLE 0608   79 80   80/  6/  8 1021.5
5 SE WRIGHTSVLE  0608   78 79  130/  2/  6 1021.5
225 S CAPE HAT   0650   79 80   80/ 10/ 14 1020.2    3/ 5   2/ 5
41 SE CHARLESTON 0650   80 81  110/ 10/ 14 1019.5    4/ 5   2/ 7

$$




USA.gov is the U.S. government's official web portal to all federal, state and local government web resources and services.